Pipestone, MN

12:56 AM CDT on October 01, 2016 (GMT -0500)
Pipestone Municipal

Weather History for KPQN - April, 2014

Change the Weather History Date:

Monday, April 7, 2014

  Actual Average Record
Temperature  
Mean Temperature 46 °F -  
Max Temperature 57 °F 49 °F 69 °F (2004)
Min Temperature 35 °F 30 °F 12 °F (2007)
Degree Days  
Heating Degree Days 19    
Moisture  
Dew Point 36 °F    
Average Humidity 69    
Maximum Humidity 100    
Minimum Humidity 31    
Precipitation  
Precipitation 0.00 in - - ()
Sea Level Pressure  
Sea Level Pressure 29.84 in    
Wind  
Wind Speed 7 mph (North)    
Max Wind Speed 28 mph    
Max Gust Speed 37 mph    
Visibility 8 miles    
Events Fog , Rain    
Averages and records for this station are not official NWS values.
T = Trace of Precipitation, MM = Missing Value Source: NWS Daily Summary

Daily Weather History Graph

Daily Weather History Graph

Search for Another Location

Airport or City:

Trip Planner

Search our weather history database for the weather conditions in past years. The results will help you decide how hot, cold, wet, or windy it might be!

Date:

Astronomy

Apr. 07, 2014 Rise Set
Actual Time 6:55 AM CDT 7:59 PM CDT
Civil Twilight 6:26 AM CDT 8:29 PM CDT
Nautical Twilight 5:51 AM CDT 9:04 PM CDT
Astronomical Twilight 5:14 AM CDT 9:41 PM CDT
Moon 12:47 PM CDT (4/7) 2:43 AM CDT (4/7)
Length of Visible Light 14h 02m
Length of Day
13h 03m
First Quarter, 53% of the Moon is Illuminated
Apr 7
First Quarter
Apr 15
Full
Apr 22
Last Quarter
Apr 29
New
May 6
First Quarter

Hourly Weather History & Observations

Time (CDT) Temp. Windchill Dew Point Humidity Pressure Visibility Wind Dir Wind Speed Gust Speed Precip Events Conditions
12:13 AM 46.4 °F 43.5 °F 42.8 °F 87% 29.82 in 10.0 mi SSE 5.8 mph - N/A Rain Light Rain
12:33 AM 44.6 °F 41.4 °F 42.8 °F 93% 29.82 in 10.0 mi East 5.8 mph - N/A   Scattered Clouds
12:53 AM 44.6 °F 41.4 °F 42.8 °F 93% 29.82 in 10.0 mi SE 5.8 mph - N/A   Clear
1:13 AM 44.6 °F - 41.0 °F 87% 29.82 in 10.0 mi Calm Calm - N/A   Clear
1:33 AM 44.6 °F 42.2 °F 41.0 °F 87% 29.82 in 10.0 mi East 4.6 mph - N/A   Clear
1:53 AM 42.8 °F 40.1 °F 41.0 °F 93% 29.82 in 7.0 mi ESE 4.6 mph - N/A   Clear
2:13 AM 42.8 °F 38.6 °F 41.0 °F 93% 29.80 in 5.0 mi SSE 6.9 mph - N/A   Mostly Cloudy
2:33 AM 42.8 °F - 39.2 °F 87% 29.80 in 5.0 mi Calm Calm - N/A   Scattered Clouds
2:53 AM 42.8 °F - 41.0 °F 93% 29.79 in 7.0 mi Calm Calm - N/A   Clear
3:13 AM 41.0 °F - 39.2 °F 93% 29.78 in 3.0 mi Calm Calm - N/A   Clear
3:33 AM 39.2 °F - 37.4 °F 93% 29.78 in 0.2 mi Calm Calm - N/A Fog Fog
3:53 AM 39.2 °F - 37.4 °F 93% 29.78 in 0.5 mi Calm Calm - N/A Fog Fog
4:13 AM 37.4 °F - 37.4 °F 100% 29.78 in 0.2 mi Calm Calm - N/A Fog Fog
4:34 AM 37.4 °F - 35.6 °F 93% 29.78 in 0.2 mi Calm Calm - N/A Fog Fog
4:53 AM 35.6 °F - 35.6 °F 100% 29.77 in 0.2 mi Calm Calm - N/A Fog Fog
5:13 AM 35.6 °F - 35.6 °F 100% 29.78 in 0.5 mi Calm Calm - N/A Fog Fog
5:34 AM 37.4 °F 32.8 °F 35.6 °F 93% 29.78 in 1.2 mi NW 5.8 mph - N/A   Mostly Cloudy
5:53 AM 39.2 °F 35.9 °F 39.2 °F 100% 29.78 in 7.0 mi NNW 4.6 mph - N/A   Clear
6:13 AM 37.4 °F 32.8 °F 37.4 °F 100% 29.78 in 7.0 mi North 5.8 mph - N/A   Clear
6:34 AM 35.6 °F 30.7 °F 35.6 °F 100% 29.79 in 4.0 mi NNW 5.8 mph - N/A   Clear
6:53 AM 35.6 °F 29.2 °F 35.6 °F 100% 29.79 in 7.0 mi NNW 8.1 mph - N/A   Clear
7:13 AM 37.4 °F 33.8 °F 35.6 °F 93% 29.80 in 10.0 mi North 4.6 mph - N/A   Clear
7:34 AM 37.4 °F 30.8 °F 35.6 °F 93% 29.81 in 10.0 mi NNW 9.2 mph - N/A   Clear
7:53 AM 39.2 °F 33.0 °F 37.4 °F 93% 29.81 in 10.0 mi NNW 9.2 mph - N/A   Clear
8:13 AM 41.0 °F 34.7 °F 37.4 °F 87% 29.82 in 10.0 mi North 10.4 mph - N/A   Clear
8:53 AM 42.8 °F 39.3 °F 37.4 °F 81% 29.82 in 10.0 mi North 5.8 mph - N/A   Clear
9:13 AM 44.6 °F 41.4 °F 37.4 °F 76% 29.82 in 10.0 mi NNE 5.8 mph - N/A   Clear
9:34 AM 46.4 °F 43.5 °F 39.2 °F 76% 29.83 in 10.0 mi North 5.8 mph - N/A   Clear
9:53 AM 48.2 °F - 39.2 °F 71% 29.83 in 10.0 mi NNE 9.2 mph - N/A   Clear
10:13 AM 50.0 °F - 39.2 °F 66% 29.83 in 10.0 mi NE 10.4 mph - N/A   Clear
10:33 AM 51.8 °F - 41.0 °F 67% 29.84 in 10.0 mi NNE 10.4 mph - N/A   Clear
10:53 AM 51.8 °F - 41.0 °F 67% 29.84 in 10.0 mi NNE 10.4 mph - N/A   Clear
11:13 AM 51.8 °F - 41.0 °F 67% 29.85 in 10.0 mi NE 9.2 mph - N/A   Clear
11:33 AM 53.6 °F - 41.0 °F 62% 29.85 in 10.0 mi NE 10.4 mph - N/A   Clear
11:53 AM 53.6 °F - 37.4 °F 54% 29.85 in 10.0 mi NNE 11.5 mph 18.4 mph N/A   Clear
12:13 PM 55.4 °F - 37.4 °F 51% 29.85 in 10.0 mi NE 10.4 mph 16.1 mph N/A   Scattered Clouds
12:33 PM 55.4 °F - 37.4 °F 51% 29.85 in 10.0 mi North 12.7 mph 17.3 mph N/A   Scattered Clouds
12:53 PM 55.4 °F - 37.4 °F 51% 29.85 in 10.0 mi NNE 12.7 mph 17.3 mph N/A   Scattered Clouds
1:13 PM 55.4 °F - 35.6 °F 47% 29.85 in 10.0 mi NNE 10.4 mph 17.3 mph N/A   Mostly Cloudy
1:33 PM 53.6 °F - 37.4 °F 54% 29.85 in 10.0 mi NE 13.8 mph 19.6 mph N/A   Mostly Cloudy
1:53 PM 53.6 °F - 35.6 °F 51% 29.85 in 10.0 mi NNE 17.3 mph 21.9 mph N/A   Mostly Cloudy
2:13 PM 55.4 °F - 35.6 °F 47% 29.84 in 10.0 mi NNE 15.0 mph 19.6 mph N/A   Scattered Clouds
2:33 PM 55.4 °F - 35.6 °F 47% 29.84 in 10.0 mi NNE 13.8 mph 20.7 mph N/A   Scattered Clouds
2:53 PM 55.4 °F - 33.8 °F 44% 29.83 in 10.0 mi NNE 9.2 mph - N/A   Scattered Clouds
3:13 PM 53.6 °F - 35.6 °F 51% 29.84 in 10.0 mi NNE 12.7 mph 19.6 mph N/A Rain Light Rain
3:33 PM 55.4 °F - 30.2 °F 38% 29.84 in 10.0 mi North 17.3 mph 20.7 mph N/A   Scattered Clouds
3:53 PM 55.4 °F - 28.4 °F 36% 29.84 in 10.0 mi NNE 12.7 mph 25.3 mph N/A   Clear
4:13 PM 55.4 °F - 26.6 °F 33% 29.84 in 10.0 mi NNE 13.8 mph 23.0 mph N/A   Clear
4:33 PM 55.4 °F - 30.2 °F 38% 29.84 in 10.0 mi NE 16.1 mph 25.3 mph N/A   Scattered Clouds
4:53 PM 55.4 °F - 28.4 °F 36% 29.84 in 10.0 mi North 12.7 mph 20.7 mph N/A   Scattered Clouds
5:13 PM 57.2 °F - 26.6 °F 31% 29.85 in 10.0 mi North 15.0 mph 25.3 mph N/A   Scattered Clouds
5:33 PM 55.4 °F - 28.4 °F 36% 29.85 in 10.0 mi North 11.5 mph 20.7 mph N/A   Scattered Clouds
5:53 PM 55.4 °F - 28.4 °F 36% 29.85 in 10.0 mi NNE 13.8 mph 18.4 mph N/A   Clear
6:13 PM 55.4 °F - 28.4 °F 36% 29.86 in 10.0 mi North 10.4 mph 21.9 mph N/A   Clear
6:33 PM 53.6 °F - 28.4 °F 38% 29.86 in 10.0 mi North 11.5 mph 18.4 mph N/A   Clear
6:53 PM 53.6 °F - 28.4 °F 38% 29.86 in 10.0 mi North 10.4 mph 18.4 mph N/A   Clear
7:13 PM 53.6 °F - 30.2 °F 41% 29.86 in 10.0 mi North 6.9 mph - N/A   Clear
7:33 PM 51.8 °F - 30.2 °F 44% 29.86 in 10.0 mi North 5.8 mph - N/A   Clear
7:53 PM 50.0 °F - 30.2 °F 47% 29.87 in 10.0 mi North 4.6 mph - N/A   Clear
8:13 PM 48.2 °F - 30.2 °F 50% 29.87 in 10.0 mi NNW 6.9 mph - N/A   Clear
8:33 PM 48.2 °F - 33.8 °F 58% 29.90 in 10.0 mi NNW 27.6 mph 36.8 mph N/A   Mostly Cloudy
8:53 PM 46.4 °F 39.0 °F 35.6 °F 66% 29.90 in 10.0 mi NNW 19.6 mph 27.6 mph N/A   Overcast
9:13 PM 44.6 °F 38.1 °F 35.6 °F 71% 29.91 in 10.0 mi North 13.8 mph 19.6 mph N/A   Overcast
9:23 PM 44.6 °F 38.1 °F 35.6 °F 71% 29.91 in 10.0 mi North 13.8 mph 19.6 mph N/A   Overcast
9:41 PM 44.6 °F 38.8 °F 35.6 °F 71% 29.91 in 10.0 mi NNW 11.5 mph 18.4 mph N/A   Overcast
10:21 PM 42.8 °F 35.8 °F 33.8 °F 70% 29.91 in 10.0 mi NW 13.8 mph 18.4 mph N/A   Mostly Cloudy
10:41 PM 42.8 °F 36.6 °F 33.8 °F 70% 29.91 in 10.0 mi NW 11.5 mph 19.6 mph N/A   Scattered Clouds
11:01 PM 41.0 °F 33.9 °F 33.8 °F 76% 29.90 in 10.0 mi NNW 12.7 mph 20.7 mph N/A   Clear
11:21 PM 41.0 °F 34.3 °F 33.8 °F 76% 29.91 in 10.0 mi NW 11.5 mph - N/A   Scattered Clouds
11:41 PM 39.2 °F 31.6 °F 33.8 °F 81% 29.91 in 10.0 mi NW 12.7 mph - N/A   Scattered Clouds